Location: Filler
(36.7551°N, 30.4456°E)
Time: 06:24:16
(UTC+00:00)

Daily predictions for brighter satellites

Satellite Brightness Start Highest point End
(mag) Time Altitude Azimuth Time Altitude Azimuth Time Altitude Azimuth
Cosmos 1980 Rocket 3.4 17:09:42 10° N 17:14:19 25° ENE 17:18:54 10° ESE
Cosmos 1727 Rocket 4.1 17:08:06 10° N 17:14:26 67° E 17:20:43 10° SSE
USA 238 DEB 3.7 17:09:09 10° S 17:15:28 54° ESE 17:22:01 10° NE
USA 238 3.8 17:09:16 10° S 17:15:35 53° ESE 17:22:07 10° NE
Cosmos 1500 Rocket 4.3 17:12:28 10° SSW 17:16:41 57° W 17:20:58 10° N
Cosmos 1833 Rocket 3.1 17:12:34 10° SSW 17:18:08 71° WNW 17:23:47 10° NNE
Lacrosse 5 4.0 17:15:33 10° N 17:18:22 15° NNE 17:21:11 10° ENE
CENTAUR R/B 3.1 17:14:52 10° S 17:19:40 30° ESE 17:25:07 10° NE
X-37B 3.0 17:19:15 10° NW 17:21:29 18° N 17:23:44 10° NE
Intercosmos 25 4.2 17:18:52 10° NNE 17:21:36 23° ENE 17:24:14 10° SE
Resurs 01 Rocket 3.6 17:20:46 10° E 17:22:37 12° ENE 17:24:29 10° NE
Meteor 2-6 Rocket 4.2 17:18:15 10° N 17:23:53 78° E 17:29:39 10° SSE
IRIDIUM 114 4.5 17:19:06 10° SSE 17:24:08 53° E 17:29:13 10° NNE
Cosmos 1867 3.7 17:19:17 10° SSW 17:24:42 83° WNW 17:30:11 10° NNE
Cosmos 1697 Rocket 2.8 17:21:26 10° NNW 17:26:59 60° ENE 17:32:31 10° SE
Aureole 1 Rocket 4.5 17:22:49 10° S 17:29:30 63° ESE 17:37:38 10° NNE
Cosmos 220 Rocket 4.0 17:25:21 10° NNW 17:29:35 89° WSW 17:33:50 10° SSE
Cosmos 1954 Rocket 4.2 17:24:44 10° S 17:29:50 50° ESE 17:34:58 10° NNE
VEP-3 4.3 17:25:42 10° WSW 17:30:06 23° S 17:37:24 10° SE
Cosmos 1821 Rocket 4.0 17:24:08 10° S 17:30:11 65° E 17:36:21 10° NNE
Cosmos 1666 Rocket 4.0 17:26:28 10° SSE 17:30:29 40° E 17:34:32 10° NNE
MOS 1 Rocket 3.8 17:26:33 10° N 17:31:57 80° WNW 17:37:04 10° SSW
IRIDIUM 103 4.3 17:28:06 10° S 17:33:15 66° E 17:38:26 10° N
Ariane Rocket 3.0 17:30:24 10° SSE 17:35:24 66° ENE 17:40:25 10° N
DMSP B5D2-2 4.2 17:31:35 10° NNE 17:36:45 56° E 17:41:53 10° S
Cosmos 407 Rocket 4.3 17:35:01 10° SSW 17:40:15 58° WNW 17:45:28 10° N
Cosmos 405 Rocket 4.4 17:39:54 14° E 17:40:32 14° E 17:42:36 10° NE
Cosmos 1805 Rocket 4.0 17:36:38 10° SSW 17:41:02 66° W 17:45:28 10° N
FREGAT/IRIS 2.1 17:41:01 10° SSE 17:43:35 67° ENE 17:46:11 10° N
Cosmos 1190 Rocket 4.5 17:39:08 10° SSW 17:44:22 67° WNW 17:49:40 10° NNE
Cosmos 1140 Rocket 4.0 17:41:16 10° SSW 17:46:28 67° WNW 17:51:43 10° NNE
SJ-6B 2.8 17:43:57 10° SSE 17:47:57 72° ENE 17:51:55 10° N
Cosmos 1812 2.7 17:44:13 10° N 17:48:05 84° W 17:51:54 10° S
Resurs 1-3 4.2 17:48:15 16° SE 17:51:20 38° ENE 17:55:24 10° N
IRIDIUM 106 4.4 17:46:19 10° S 17:51:32 82° W 17:56:46 10° N
Shenzhou-11 Module 3.1 17:50:00 10° W 17:51:59 24° SSW 17:52:58 18° S
Cosmos 2239 Rocket 4.5 17:49:21 10° S 17:55:29 89° E 18:01:41 10° N
Cosmos 2084 Rocket 3.4 17:51:43 10° SSW 17:55:45 54° ESE 17:59:53 10° NE
Cosmos 1000 Rocket 4.4 17:50:16 10° N 17:56:31 80° E 18:02:39 10° S
Cosmos 1633 Rocket 3.0 17:52:57 10° S 17:57:20 69° E 18:01:44 10° NNE
OBJECT-B 1.2 17:56:29 23° SE 17:58:07 43° ENE 18:01:16 10° N
SL-08 RB Rocket 4.1 17:53:47 10° S 17:58:22 67° W 18:03:01 10° NNW
Cosmos 2123 Rocket 4.2 17:54:37 10° N 18:00:41 51° E 18:05:41 15° SSE
Cosmos 1184 Rocket 2.7 17:59:14 10° S 18:02:28 65° E 18:05:45 10° NNE
Cosmos 1605 Rocket 4.3 17:58:45 10° SSE 18:04:28 44° E 18:10:10 10° NNE
NOSS 3-2 (A) 3.8 18:00:19 10° SW 18:05:49 63° NW 18:12:01 10° NNE
Cosmos 921 Rocket 3.8 18:03:12 10° N 18:06:59 32° ENE 18:08:16 26° ESE
Meteor 1-27 Rocket 3.9 18:02:17 10° N 18:08:15 87° W 18:14:10 10° S
ARGOS 4.3 18:03:54 10° S 18:08:57 42° W 18:14:02 10° NNW
USA 267 3.4 18:07:24 10° NE 18:13:40 47° SE 18:19:55 10° SSW
CZ-2C R/B 3.3 18:10:35 10° N 18:15:41 57° WNW 18:20:51 10° SSW
NOSS 3-2 (C) 3.3 18:10:50 10° SSW 18:16:22 87° WNW 18:22:37 10° NNE
Cosmos 1707 Rocket 4.0 18:15:06 10° NNW 18:19:22 61° W 18:23:19 12° S
Cosmos 192 4.3 18:15:19 10° NNW 18:20:14 72° ENE 18:22:40 30° SSE
SL-16 R/B 3.4 18:18:10 10° N 18:22:55 27° ENE 18:24:36 23° E
Cosmos 2082 Rocket 4.0 18:21:38 10° SW 18:26:42 33° WNW 18:31:48 10° N
Cosmos 1470 Rocket 3.4 18:23:35 16° S 18:27:05 82° E 18:31:28 10° N
SL-27 R/B 3.8 18:31:00 25° NE 18:31:00 25° NE 18:32:36 10° NNE
Cosmos 2242 Rocket 4.2 18:27:25 10° NNE 18:31:29 36° ENE 18:31:38 35° E
Meteor 2-20 Rocket 4.4 18:27:46 10° N 18:33:58 83° E 18:37:49 24° S
Meteor 1-25 Rocket 4.2 18:34:47 10° S 18:40:20 82° W 18:46:00 10° N
Cosmos 2322 Rocket 3.2 18:35:23 10° N 18:40:22 30° ENE 18:41:25 28° E
Cosmos 1850 Rocket 3.9 18:35:18 10° SSW 18:40:36 87° ESE 18:45:55 10° NNE
ATLAS 3B R/B 2.7 18:35:15 10° S 18:41:32 48° ESE 18:47:49 10° NE
Cosmos 2278 4.3 18:36:04 10° NNW 18:41:37 53° WSW 18:45:06 22° S
SPOT 1/Viking Rocket 4.2 18:42:54 35° E 18:43:27 36° ENE 18:48:11 10° N
BREEZE-M TANK 3.9 18:28:20 10° SW 18:43:29 48° SSE 18:45:06 38° ESE
USA 32 4.1 18:40:59 19° S 18:44:50 80° W 18:50:05 10° N
Meteor 1-4 Rocket 4.1 18:43:08 10° NNW 18:46:13 31° W 18:47:38 22° SW
Cosmos 1862 Rocket 3.8 18:42:47 10° NNW 18:47:11 65° W 18:48:49 36° SSW
Terra 3.8 18:49:02 15° NE 18:49:02 15° NE 18:51:04 10° NNE
Cosmos 2360 Rocket 3.8 18:45:22 10° N 18:49:22 19° NE 18:50:02 19° ENE
Meteor 1-18 Rocket 4.2 18:44:47 10° N 18:50:16 60° E 18:51:22 50° SE
Cosmos 1238 Rocket 3.3 18:51:42 42° NW 18:51:42 42° NW 18:54:01 10° N
IGS 5A 3.8 18:53:12 49° NE 18:53:12 49° NE 18:56:48 10° N
Centaur D-1AR AC-40 4.0 18:41:02 10° WSW 18:53:20 25° SSW 18:54:39 23° S
Cosmos 1153 Rocket 4.3 18:52:09 36° S 18:54:47 73° E 19:00:57 10° N
Cosmos 1980 Rocket 3.2 18:53:09 10° NW 18:58:26 42° WSW 19:01:19 24° SSW
Resurs 01 Rocket 2.1 18:57:21 41° SSW 18:58:35 55° W 19:02:57 10° NNW
X-37B 2.5 18:55:55 10° NW 18:58:07 27° N 18:58:07 27° N
Cosmos 468 Rocket 3.9 18:53:30 10° NNW 18:58:49 76° ENE 18:59:33 64° SE
Cosmos 1447 Rocket 4.4 18:52:42 10° N 18:59:02 72° E 19:00:45 49° SSE
Cosmos 44 4.1 18:57:19 10° NNW 19:02:01 39° NE 19:02:11 39° ENE
Lacrosse 5 1.9 18:57:11 10° NW 19:02:14 64° NE 19:02:39 61° ENE
Cosmos 1602 4.4 19:02:37 48° WSW 19:03:11 53° W 19:07:03 10° N
Cosmos 1933 Rocket 4.4 19:05:54 31° SW 19:07:40 49° W 19:11:59 10° N
Cosmos 1802 Rocket 4.4 19:10:10 43° E 19:10:10 43° E 19:15:48 10° NNE
GP-B 3.9 19:05:41 10° N 19:09:58 49° W 19:11:10 38° SW
CENTAUR R/B 3.7 19:04:31 10° WSW 19:09:59 41° NW 19:16:22 10° NNE
Spot 2 Rocket 3.3 19:11:05 78° ESE 19:11:22 82° ENE 19:16:28 10° N
Cosmos 1869 Rocket 4.4 19:20:36 45° NNE 19:20:36 45° NNE 19:23:44 10° N
Okean 1-7 3.8 19:21:47 10° N 19:25:00 49° NNW 19:25:00 49° NNW
Cosmos 1763 Rocket 3.8 19:27:56 10° NNW 19:33:10 58° WSW 19:33:12 58° WSW
Cosmos 1437 Rocket 4.4 19:29:41 10° NNW 19:31:55 31° NW 19:31:55 31° NW
Cosmos 2333 Rocket 4.1 19:29:44 10° N 19:33:20 18° NE 19:33:20 18° NE
Cosmos 1570 Rocket 4.3 19:29:56 10° NNW 19:34:32 64° NNE 19:34:32 64° NNE
Landsat 7 4.5 19:36:27 51° W 19:36:27 51° W 19:40:46 10° NNW
Meteor 1-5 Rocket 4.2 19:36:35 88° NNE 19:36:35 88° NNE 19:42:28 10° N
SPOT 5 3.9 19:38:25 34° N 19:38:25 34° N 19:41:01 10° N
Meteor 1-11 Rocket 4.3 19:49:18 50° NNE 19:49:18 50° NNE 19:53:34 10° NNE
Cosmos 2100 Rocket 4.2 19:52:15 58° WSW 19:52:53 61° W 19:58:59 10° N
USA 267 4.1 19:50:25 10° NE 19:56:36 47° NW 20:02:48 10° WSW
Cosmos 2173 Rocket 4.2 19:56:36 59° W 19:57:00 61° W 20:03:03 10° N
Lacrosse 4 Rocket 4.0 20:01:22 15° NNE 20:01:22 15° NNE 20:02:10 10° NNE
Meteor 2-4 Rocket 4.3 19:57:57 10° NNW 20:02:35 50° WNW 20:02:35 50° WNW
Cosmos 2219 Rocket 3.8 19:59:08 10° N 20:02:41 25° NE 20:02:41 25° NE
Cosmos 540 Rocket 4.5 20:00:59 10° NNW 20:04:39 43° NW 20:04:39 43° NW
SL-16 R/B 3.2 20:01:51 10° NW 20:06:27 38° W 20:06:27 38° W
Cosmos 1725 Rocket 4.3 20:10:38 62° N 20:10:38 62° N 20:15:48 10° N
ERS-1 Rocket 4.4 20:16:14 35° WNW 20:16:14 35° WNW 20:19:34 10° NNW
Cosmos 2016 Rocket 4.4 20:17:44 61° NW 20:17:44 61° NW 20:23:31 10° N
Cosmos 2322 Rocket 3.6 20:19:16 10° NW 20:23:15 32° W 20:23:15 32° W
Terra 3.7 20:27:55 28° NW 20:27:55 28° NW 20:30:19 10° NNW
USA 234 3.7 20:29:00 54° NNE 20:29:00 54° NNE 20:34:58 10° NW
ATLAS 3B R/B 4.1 20:26:35 10° WSW 20:32:22 31° NW 20:38:11 10° NNE
Cosmos 2360 Rocket 3.4 20:28:13 10° NNW 20:31:48 38° NW 20:31:48 38° NW
COSMOS 2428 4.2 20:54:43 10° NNW 20:57:48 33° N 20:57:48 33° N
Cosmos 2237 Rocket 4.1 21:00:03 10° N 21:02:46 23° NNE 21:02:46 23° NNE
Cosmos 2333 Rocket 4.0 21:12:40 10° NNW 21:15:19 28° NW 21:15:19 28° NW
Cosmos 2227 Rocket 4.3 21:40:11 20° NNE 21:40:11 20° NNE 21:41:54 10° NNE
Cosmos 2219 Rocket 4.4 21:42:44 10° NW 21:44:23 19° NW 21:44:23 19° NW
SL-16 R/B 4.1 22:15:01 10° N 22:17:41 26° N 22:17:41 26° N
Cosmos 2297 Rocket 4.2 22:32:12 24° NNW 22:32:12 24° NNW 22:34:48 10° N
SJ 16-02 4.4 22:47:38 13° N 22:47:38 13° N 22:48:05 10° N
CZ-2D R/B 3.9 23:02:14 10° NNE 23:05:05 28° NE 23:05:05 28° NE
Cosmos 2227 Rocket 4.4 23:21:59 16° NW 23:21:59 16° NW 23:24:22 10° NNW
Resurs 1-4 Rocket 3.4 23:32:28 10° NNE 23:35:32 36° NNE 23:35:32 36° NNE
Atlas Centaur 2 4.2 23:51:55 21° ESE 23:51:55 21° ESE 23:54:27 10° E
